Previsão horária em Centawa

Hoje, 25 Julho, Domingo

Tempo Temperatura Precipitação Vento Pressão Humidade
00:00 +20°C° 0 mm 2 m/s 739 mmHg 70%
01:00 +20°C° 0 mm 2 m/s 739 mmHg 71%
02:00 +20°C° 0 mm 2 m/s 739 mmHg 68%
03:00 +19°C° 0 mm 2 m/s 739 mmHg 65%
04:00 +19°C° 0 mm 2 m/s 739 mmHg 62%
05:00 +21°C° 0 mm 2 m/s 739 mmHg 57%
06:00 +24°C° 0 mm 2 m/s 739 mmHg 52%
07:00 +25°C° 0 mm 3 m/s 739 mmHg 47%
08:00 +27°C° 0 mm 3 m/s 739 mmHg 44%
09:00 +28°C° 0 mm 3 m/s 739 mmHg 40%
10:00 +29°C° 0 mm 3 m/s 739 mmHg 36%
11:00 +27°C° 0 mm 3 m/s 739 mmHg 44%
12:00 +26°C° 0 mm 3 m/s 739 mmHg 52%
13:00 +24°C° 0 mm 3 m/s 739 mmHg 59%
14:00 +24°C° 0 mm 3 m/s 739 mmHg 61%
15:00 +22°C° 0 mm 3 m/s 739 mmHg 63%
16:00 +23°C° 0 mm 2 m/s 739 mmHg 65%
17:00 +22°C° 0 mm 3 m/s 739 mmHg 64%
18:00 +22°C° 0 mm 3 m/s 738 mmHg 63%
19:00 +22°C° 0 mm 3 m/s 738 mmHg 62%
20:00 +22°C° 0 mm 3 m/s 738 mmHg 66%
21:00 +21°C° 0 mm 3 m/s 738 mmHg 69%
22:00 +20°C° 0 mm 3 m/s 738 mmHg 73%
23:00 +20°C° 0.2 mm 2 m/s 738 mmHg 76%

Amanhã, 26 Julho, Segunda-feira

Tempo Temperatura Precipitação Vento Pressão Humidade
00:00 +19°C° 0.2 mm 2 m/s 738 mmHg 80%
01:00 +20°C° 0.2 mm 1 m/s 738 mmHg 84%
02:00 +19°C° 0 mm 1 m/s 738 mmHg 85%
03:00 +19°C° 0 mm 1 m/s 737 mmHg 86%
04:00 +19°C° 0 mm 1 m/s 737 mmHg 87%
05:00 +20°C° 0.2 mm 1 m/s 738 mmHg 87%
06:00 +20°C° 0.2 mm 1 m/s 738 mmHg 86%
07:00 +20°C° 0.2 mm 1 m/s 738 mmHg 86%
08:00 +21°C° 0.1 mm 2 m/s 738 mmHg 80%
09:00 +23°C° 0.1 mm 2 m/s 739 mmHg 75%
10:00 +24°C° 0.1 mm 2 m/s 739 mmHg 70%
11:00 +25°C° 0.2 mm 2 m/s 739 mmHg 68%
12:00 +25°C° 0.2 mm 2 m/s 739 mmHg 66%
13:00 +26°C° 0.2 mm 2 m/s 739 mmHg 65%
14:00 +27°C° 0.2 mm 2 m/s 739 mmHg 61%
15:00 +27°C° 0.2 mm 2 m/s 738 mmHg 57%
16:00 +28°C° 0.2 mm 2 m/s 738 mmHg 53%
17:00 +27°C° 0 mm 2 m/s 738 mmHg 57%
18:00 +26°C° 0 mm 1 m/s 738 mmHg 62%
19:00 +25°C° 0 mm 1 m/s 738 mmHg 67%
20:00 +24°C° 0.2 mm 1 m/s 738 mmHg 69%
21:00 +23°C° 0.2 mm 1 m/s 738 mmHg 71%
22:00 +22°C° 0.2 mm 1 m/s 738 mmHg 73%
23:00 +20°C° 0.7 mm 2 m/s 738 mmHg 79%

Depois de amanhã, 27 Julho, Terça-feira

Tempo Temperatura Precipitação Vento Pressão Humidade
00:00 +20°C° 0.7 mm 2 m/s 738 mmHg 84%
01:00 +19°C° 0.7 mm 3 m/s 739 mmHg 90%
02:00 +19°C° 0.2 mm 3 m/s 739 mmHg 92%
03:00 +18°C° 0.2 mm 2 m/s 739 mmHg 94%
04:00 +18°C° 0.2 mm 2 m/s 739 mmHg 97%
05:00 +19°C° 0 mm 2 m/s 739 mmHg 94%
06:00 +19°C° 0 mm 3 m/s 740 mmHg 91%
07:00 +20°C° 0 mm 3 m/s 740 mmHg 87%
08:00 +22°C° 0 mm 3 m/s 740 mmHg 78%
09:00 +25°C° 0 mm 3 m/s 741 mmHg 68%
10:00 +27°C° 0 mm 2 m/s 741 mmHg 58%
11:00 +28°C° 0 mm 2 m/s 741 mmHg 54%
12:00 +29°C° 0 mm 2 m/s 740 mmHg 50%
13:00 +30°C° 0 mm 2 m/s 740 mmHg 45%
14:00 +30°C° 0 mm 2 m/s 740 mmHg 44%
15:00 +30°C° 0 mm 2 m/s 740 mmHg 42%
16:00 +31°C° 0 mm 2 m/s 740 mmHg 41%
17:00 +29°C° 0 mm 1 m/s 740 mmHg 47%
18:00 +28°C° 0 mm 1 m/s 740 mmHg 52%
19:00 +26°C° 0 mm 1 m/s 740 mmHg 58%
20:00 +25°C° 0.2 mm 1 m/s 740 mmHg 63%
21:00 +24°C° 0.2 mm 1 m/s 740 mmHg 68%
22:00 +22°C° 0.2 mm 1 m/s 740 mmHg 73%
23:00 +22°C° 0 mm 1 m/s 740 mmHg 75%

28 Julho, Quarta-feira

Tempo Temperatura Precipitação Vento Pressão Humidade
00:00 +21°C° 0 mm 2 m/s 740 mmHg 76%
01:00 +20°C° 0 mm 2 m/s 740 mmHg 78%
02:00 +20°C° 0 mm 2 m/s 739 mmHg 78%
03:00 +20°C° 0 mm 2 m/s 739 mmHg 78%
04:00 +19°C° 0 mm 2 m/s 739 mmHg 78%
05:00 +21°C° 0 mm 1 m/s 739 mmHg 75%
06:00 +22°C° 0 mm 1 m/s 739 mmHg 72%
07:00 +23°C° 0 mm 1 m/s 739 mmHg 69%
08:00 +24°C° 0 mm 1 m/s 739 mmHg 64%
09:00 +26°C° 0 mm 1 m/s 739 mmHg 60%
10:00 +27°C° 0 mm 1 m/s 739 mmHg 56%
11:00 +27°C° 0 mm 2 m/s 739 mmHg 55%
12:00 +28°C° 0 mm 3 m/s 739 mmHg 54%
13:00 +28°C° 0 mm 4 m/s 739 mmHg 53%
14:00 +26°C° 0.4 mm 5 m/s 739 mmHg 63%
15:00 +23°C° 0.4 mm 5 m/s 740 mmHg 74%
16:00 +21°C° 0.4 mm 5 m/s 740 mmHg 84%
17:00 +21°C° 0.1 mm 4 m/s 740 mmHg 84%
18:00 +20°C° 0.1 mm 3 m/s 740 mmHg 84%
19:00 +20°C° 0.1 mm 2 m/s 740 mmHg 84%
20:00 +19°C° 0 mm 2 m/s 741 mmHg 87%
21:00 +19°C° 0 mm 1 m/s 741 mmHg 90%
22:00 +17°C° 0 mm 0 m/s 741 mmHg 93%
23:00 +18°C° 0 mm 1 m/s 741 mmHg 93%

29 Julho, Quinta-feira

Tempo Temperatura Precipitação Vento Pressão Humidade
00:00 +18°C° 0 mm 1 m/s 741 mmHg 94%
01:00 +17°C° 0 mm 2 m/s 741 mmHg 94%
02:00 +17°C° 0 mm 2 m/s 741 mmHg 94%
03:00 +17°C° 0 mm 2 m/s 741 mmHg 94%
04:00 +16°C° 0 mm 1 m/s 741 mmHg 94%
05:00 +19°C° 0 mm 1 m/s 741 mmHg 87%
06:00 +20°C° 0 mm 1 m/s 741 mmHg 79%
07:00 +22°C° 0 mm 1 m/s 741 mmHg 72%
08:00 +24°C° 0 mm 2 m/s 741 mmHg 64%
09:00 +25°C° 0 mm 2 m/s 741 mmHg 55%
10:00 +27°C° 0 mm 2 m/s 741 mmHg 47%
11:00 +28°C° 0 mm 2 m/s 741 mmHg 43%
12:00 +29°C° 0 mm 2 m/s 740 mmHg 39%
13:00 +30°C° 0 mm 3 m/s 740 mmHg 35%
14:00 +30°C° 0 mm 3 m/s 740 mmHg 35%
15:00 +30°C° 0 mm 3 m/s 740 mmHg 34%
16:00 +30°C° 0 mm 4 m/s 739 mmHg 34%
17:00 +29°C° 0 mm 3 m/s 739 mmHg 40%
18:00 +27°C° 0 mm 2 m/s 739 mmHg 47%
19:00 +26°C° 0 mm 1 m/s 739 mmHg 53%
20:00 +25°C° 0 mm 1 m/s 739 mmHg 54%
21:00 +25°C° 0 mm 1 m/s 739 mmHg 54%
22:00 +24°C° 0 mm 1 m/s 739 mmHg 55%
23:00 +24°C° 0 mm 1 m/s 739 mmHg 57%

30 Julho, Sexta-feira

Tempo Temperatura Precipitação Vento Pressão Humidade
00:00 +23°C° 0 mm 2 m/s 738 mmHg 60%
01:00 +23°C° 0 mm 2 m/s 738 mmHg 62%
02:00 +21°C° 0 mm 2 m/s 738 mmHg 64%
03:00 +20°C° 0 mm 2 m/s 738 mmHg 66%
04:00 +20°C° 0 mm 2 m/s 738 mmHg 68%
05:00 +21°C° 0 mm 2 m/s 738 mmHg 63%
06:00 +24°C° 0 mm 2 m/s 738 mmHg 59%
07:00 +25°C° 0 mm 3 m/s 739 mmHg 54%
08:00 +26°C° 0.1 mm 3 m/s 739 mmHg 56%
09:00 +26°C° 0.1 mm 3 m/s 739 mmHg 58%
10:00 +26°C° 0.1 mm 3 m/s 739 mmHg 60%
11:00 +28°C° 0 mm 3 m/s 739 mmHg 53%
12:00 +29°C° 0 mm 3 m/s 739 mmHg 46%
13:00 +32°C° 0 mm 4 m/s 738 mmHg 40%
14:00 +30°C° 0 mm 3 m/s 738 mmHg 42%
15:00 +30°C° 0 mm 3 m/s 738 mmHg 45%
16:00 +29°C° 0 mm 3 m/s 738 mmHg 47%
17:00 +28°C° 0.1 mm 3 m/s 738 mmHg 55%
18:00 +26°C° 0.1 mm 2 m/s 738 mmHg 63%
19:00 +25°C° 0.1 mm 2 m/s 737 mmHg 71%
20:00 +24°C° 0.3 mm 2 m/s 737 mmHg 76%
21:00 +21°C° 0.3 mm 2 m/s 738 mmHg 81%
22:00 +20°C° 0.3 mm 2 m/s 738 mmHg 86%
23:00 +20°C° 0.1 mm 2 m/s 738 mmHg 88%
Mostrar mais

Necessitamos do seu Consentimento

A Meteoprog e os seus Fornecedores de Serviços podem armazenar e aceder a dados pessoais como cookies, identificadores do dispositivo ou outras tecnologias semelhantes existentes no seu dispositivo e processar estes dados para personalizar conteúdos e anúncios, assim como funcionalidades nas redes sociais e análise de tráfego.

  • Armazenar e/ou aceder a informações no seu dispositivo

    Os cookies, identificadores do dispositivo ou outras informações podem ser armazenados ou acedidos no seu dispositivo, para os fins acima indicados.

  • Anúncios e conteúdos personalizados, medição de anúncios e conteúdos, dados sobre o público-alvo e desenvolvimento de produtos

    Os anúncios e os conteúdos podem ser personalizados com base num perfil. Podem ser adicionados dados adicionais para uma maior personalização dos anúncios e dos conteúdos. A eficácia dos anúncios e dos conteúdos pode ser medida. Podem ser obtidas informações sobre o público que visualizou os anúncios e os conteúdos. Estes dados podem ser usados para desenvolver ou melhorar sistemas, softwares ou a experiência do utilizador.

Ao clicar em "Eu concordo”, permitirá o uso de cookies, identificadores do dispositivo e web beacons mencionados ou outras tecnologias semelhantes. As configurações do navegador do seu dispositivo podem ser alteradas.

Para certos fins, podem ser invocados interesses legítimos ao invés de consentimento. Pode ler mais informação sobre este assunto na nossa Política de Privacidade e Cookies.